Location: Grand Lay
(47.3253°N, 0.9468°E)
Time: 21:28:58
(UTC+00:00)

SL-23 DEB - Pass Details

Date: 18 January 2026
Orbit: 423 x 3435 km, 51.4° (Epoch: 18 February)

Event Time Altitude Azimuth Distance (km) Brightness Sun altitude
Exits shadow 05:58:10 42° 290° (WNW) 622 3.6 -16.3°
Maximum altitude 05:58:56 57° 344° (NNW) 506 3.4 -16.2°
Drops below altitude 10° 06:02:11 10° 64° (ENE) 1,597 6.9 -15.7°
Sets 06:04:31 0° 69° (ENE) 2,629 8.2 -15.3°
